Weather History for KBTR - April, 2012

Change the Weather History Date:

Thursday, April 5, 2012

  Actual Average Record
Temperature  
Mean Temperature 72 °F 66 °F  
Max Temperature 82 °F 77 °F 87 °F (1955)
Min Temperature 62 °F 54 °F 33 °F (1987)
Degree Days  
Heating Degree Days 0 3  
Month to date heating degree days 0 15  
Since 1 July heating degree days 1116 1517  
Cooling Degree Days 7 3  
Month to date cooling degree days 44 15  
Year to date cooling degree days 286 104  
Growing Degree Days 22 (Base 50)    
Moisture  
Dew Point 64 °F    
Average Humidity 77    
Maximum Humidity 100    
Minimum Humidity 54    
Precipitation  
Precipitation T in 0.16 in 5.03 in (1983)
Month to date precipitation 2.92 0.77  
Year to date precipitation 22.65 15.94  
Snow  
Snow 0.00 in - - ()
Month to date snowfall 0.0  
Since 1 July snowfall 0.0  
Snow Depth 0.00 in    
Sea Level Pressure  
Sea Level Pressure 29.79 in    
Wind  
Wind Speed 5 mph (WNW)    
Max Wind Speed 14 mph    
Max Gust Speed 23 mph    
Visibility 10 miles    
Events Rain    
T = Trace of Precipitation, MM = Missing Value Source: NWS Daily Summary

Daily Weather History Graph

Daily Weather History Graph

Search for Another Location

Airport or City:

Trip Planner

Search our weather history database for the weather conditions in past years. The results will help you decide how hot, cold, wet, or windy it might be!

Date:

Astronomy

Apr. 05, 2012 Rise Set
Actual Time 6:48 AM CDT 7:26 PM CDT
Civil Twilight 6:23 AM CDT 7:50 PM CDT
Nautical Twilight 5:55 AM CDT 8:19 PM CDT
Astronomical Twilight 5:26 AM CDT 8:48 PM CDT
Moon 6:32 PM CDT (4/5) 5:41 AM CDT (4/5)
Length of Visible Light 13h 26m
Length of Day
12h 38m
Waxing Gibbous, 98% of the Moon is Illuminated
Apr 5
Waxing Gibbous
Apr 6
Full
Apr 13
Last Quarter
Apr 21
New
Apr 29
First Quarter

Hourly Weather History & Observations

Time (CDT) Temp. Heat Index Dew Point Humidity Pressure Visibility Wind Dir Wind Speed Gust Speed Precip Events Conditions
12:53 AM 70.0 °F - 66.9 °F 90% 29.80 in 10.0 mi Calm Calm - N/A   Partly Cloudy
1:53 AM 68.0 °F - 66.9 °F 96% 29.76 in 10.0 mi Calm Calm - N/A   Partly Cloudy
2:53 AM 66.0 °F - 66.0 °F 100% 29.77 in 9.0 mi Calm Calm - N/A   Scattered Clouds
3:22 AM 68.0 °F - 66.2 °F 94% 29.78 in 10.0 mi South 6.9 mph - N/A   Overcast
3:34 AM 69.8 °F - 68.0 °F 94% 29.77 in 10.0 mi SSW 9.2 mph - N/A   Overcast
3:53 AM 70.0 °F - 66.9 °F 90% 29.76 in 10.0 mi SW 9.2 mph - N/A   Overcast
4:06 AM 69.8 °F - 66.2 °F 88% 29.77 in 10.0 mi NW 9.2 mph - 0.00 in Rain Light Rain
4:53 AM 66.9 °F - 64.9 °F 93% 29.77 in 10.0 mi Calm Calm - 0.00 in   Overcast
5:30 AM 66.2 °F - 64.4 °F 94% 29.76 in 10.0 mi Calm Calm - N/A   Partly Cloudy
5:53 AM 66.0 °F - 64.9 °F 96% 29.76 in 10.0 mi Calm Calm - N/A   Mostly Cloudy
6:23 AM 64.4 °F - 64.4 °F 100% 29.77 in 10.0 mi Calm Calm - N/A   Scattered Clouds
6:33 AM 64.4 °F - 64.4 °F 100% 29.77 in 10.0 mi NE 3.5 mph - N/A   Mostly Cloudy
6:46 AM 64.4 °F - 62.6 °F 94% 29.77 in 10.0 mi Calm Calm - N/A   Scattered Clouds
6:53 AM 64.0 °F - 63.0 °F 96% 29.77 in 10.0 mi Calm Calm - N/A   Scattered Clouds
7:53 AM 66.9 °F - 66.0 °F 97% 29.78 in 10.0 mi SSE 5.8 mph - N/A   Clear
8:35 AM 69.8 °F - 68.0 °F 94% 29.78 in 10.0 mi SSW 4.6 mph - N/A   Overcast
8:53 AM 71.1 °F - 68.0 °F 90% 29.78 in 10.0 mi South 5.8 mph - N/A   Overcast
9:53 AM 72.0 °F - 69.1 °F 91% 29.80 in 9.0 mi West 6.9 mph - N/A   Overcast
10:53 AM 75.0 °F - 69.1 °F 82% 29.83 in 10.0 mi WNW 10.4 mph 16.1 mph N/A   Overcast
11:31 AM 73.4 °F - 66.2 °F 78% 29.83 in 10.0 mi NW 9.2 mph - N/A   Mostly Cloudy
11:53 AM 77.0 °F - 66.9 °F 71% 29.82 in 10.0 mi WNW 12.7 mph 18.4 mph N/A   Mostly Cloudy
12:53 PM 77.0 °F - 66.0 °F 69% 29.81 in 10.0 mi NW 9.2 mph 17.3 mph N/A   Scattered Clouds
1:53 PM 78.1 °F - 64.0 °F 62% 29.79 in 10.0 mi NW 9.2 mph - N/A   Scattered Clouds
2:53 PM 79.0 °F - 64.0 °F 60% 29.77 in 10.0 mi NW 8.1 mph - N/A   Scattered Clouds
3:53 PM 80.1 °F 81.7 °F 64.0 °F 58% 29.75 in 10.0 mi NW 8.1 mph - N/A   Clear
4:53 PM 80.1 °F 81.2 °F 62.1 °F 54% 29.75 in 10.0 mi NW 8.1 mph - N/A   Scattered Clouds
5:53 PM 79.0 °F - 62.1 °F 56% 29.75 in 10.0 mi NW 5.8 mph - N/A   Scattered Clouds
6:53 PM 75.9 °F - 60.1 °F 58% 29.75 in 10.0 mi NW 3.5 mph - N/A   Partly Cloudy
7:53 PM 73.0 °F - 57.0 °F 57% 29.78 in 10.0 mi NW 3.5 mph - N/A   Clear
8:53 PM 71.1 °F - 55.9 °F 59% 29.81 in 10.0 mi Calm Calm - N/A   Clear
9:53 PM 66.9 °F - 57.0 °F 70% 29.83 in 10.0 mi NNW 3.5 mph - N/A   Clear
10:53 PM 66.0 °F - 55.9 °F 70% 29.85 in 10.0 mi Calm Calm - N/A   Clear
11:53 PM 64.0 °F - 57.0 °F 78% 29.87 in 10.0 mi Calm Calm - N/A   Clear